NFC9354 TJSJ-SBKP

Flight info

Callsign NFC9354
Flight time 5h 57m
Altitude 31000
Route JETSS1 COY DCT GEECE UL776 KORTO/N0477F330 UL776 UBKOS/N0472F350 UZ38 VUNIG/N0474F340 UZ38 MULUV/N0471F350 UZ2 ENTIT ITEDI1A
Aircraft A306/H-SDE3FGHIRWY/LB1

Departure

Time 2026-05-04 12:07
Airport Luis Munoz Marin International Airport (TJSJ)

Arrival

Time 2026-05-04 18:05
Airport Viracopos International Airport (SBKP)
Time Latitude Longitude Altitude Speed Heading
2026-05-04 11:29 18.43775 -65.99597 23 ft 0 kts 294°
2026-05-04 11:55 18.43775 -65.99596 23 ft 2 kts 294°
2026-05-04 11:56 18.43766 -65.99572 24 ft 4 kts 287°
2026-05-04 11:56 18.43760 -65.99544 27 ft 4 kts 269°
2026-05-04 11:56 18.43765 -65.99521 26 ft 4 kts 212°
2026-05-04 11:56 18.43773 -65.99517 26 ft 1 kts 180°
2026-05-04 12:00 18.43770 -65.99517 23 ft 4 kts 180°
2026-05-04 12:00 18.43696 -65.99515 24 ft 16 kts 178°
2026-05-04 12:00 18.43562 -65.99538 23 ft 20 kts 198°
2026-05-04 12:01 18.43485 -65.99557 25 ft 5 kts 215°
2026-05-04 12:01 18.43464 -65.99608 25 ft 13 kts 264°
2026-05-04 12:02 18.43465 -66.00581 23 ft 22 kts 270°
2026-05-04 12:03 18.43466 -66.00736 23 ft 20 kts 270°
2026-05-04 12:03 18.43464 -66.00875 23 ft 21 kts 270°
2026-05-04 12:03 18.43460 -66.01059 25 ft 24 kts 268°
2026-05-04 12:03 18.43466 -66.01209 23 ft 20 kts 269°
2026-05-04 12:04 18.43466 -66.01358 23 ft 19 kts 271°
2026-05-04 12:04 18.43491 -66.01430 27 ft 5 kts 326°
2026-05-04 12:04 18.43546 -66.01440 26 ft 14 kts 356°
2026-05-04 12:04 18.43657 -66.01440 27 ft 15 kts
2026-05-04 12:05 18.43736 -66.01454 25 ft 8 kts 332°
2026-05-04 12:05 18.43748 -66.01475 25 ft 3 kts 288°
2026-05-04 12:05 18.43763 -66.01523 25 ft 8 kts 294°
2026-05-04 12:05 18.43817 -66.01571 25 ft 8 kts 344°
2026-05-04 12:06 18.43841 -66.01556 24 ft 5 kts 46°
2026-05-04 12:06 18.43852 -66.01537 24 ft 5 kts 59°
2026-05-04 12:06 18.43957 -66.01289 24 ft 67 kts 66°
2026-05-04 12:06 18.44208 -66.00674 26 ft 116 kts 65°
2026-05-04 12:07 18.44588 -65.99739 27 ft 161 kts 67°
2026-05-04 12:07 18.45066 -65.98542 280 ft 187 kts 69°
2026-05-04 12:07 18.45626 -65.97208 707 ft 210 kts 70°
2026-05-04 12:07 18.46224 -65.95744 1328 ft 221 kts 70°
2026-05-04 12:08 18.46819 -65.94236 1665 ft 229 kts 71°
2026-05-04 12:08 18.47407 -65.92624 2123 ft 240 kts 73°
2026-05-04 12:08 18.47992 -65.90968 2852 ft 243 kts 72°
2026-05-04 12:08 18.48594 -65.89269 3457 ft 250 kts 73°
2026-05-04 12:09 18.49207 -65.87547 4199 ft 252 kts 72°
2026-05-04 12:09 18.49814 -65.85846 4901 ft 250 kts 71°
2026-05-04 12:09 18.50431 -65.84119 5574 ft 254 kts 71°
2026-05-04 12:09 18.51060 -65.82358 6212 ft 259 kts 71°
2026-05-04 12:10 18.51701 -65.80563 6865 ft 263 kts 71°
2026-05-04 12:10 18.52352 -65.78741 7475 ft 268 kts 70°
2026-05-04 12:10 18.53015 -65.76887 8118 ft 272 kts 71°
2026-05-04 12:10 18.53684 -65.75013 8793 ft 275 kts 70°
2026-05-04 12:11 18.54368 -65.73097 9364 ft 283 kts 70°
2026-05-04 12:11 18.55050 -65.71162 9989 ft 287 kts 72°
2026-05-04 12:11 18.55473 -65.69067 10339 ft 300 kts 87°
2026-05-04 12:11 18.55224 -65.66832 10546 ft 317 kts 109°
2026-05-04 12:12 18.54194 -65.64728 10787 ft 330 kts 123°
2026-05-04 12:12 18.52775 -65.62746 11013 ft 344 kts 130°
2026-05-04 12:12 18.51148 -65.60840 11245 ft 356 kts 133°
2026-05-04 12:12 18.49428 -65.58946 11459 ft 367 kts 134°
2026-05-04 12:13 18.47631 -65.56977 11655 ft 377 kts 133°
2026-05-04 12:14 18.35476 -65.42829 14299 ft 372 kts 132°
2026-05-04 12:15 18.33747 -65.40789 14568 ft 373 kts 132°
2026-05-04 12:15 18.32006 -65.38736 14844 ft 376 kts 133°
2026-05-04 12:15 18.30255 -65.36670 15104 ft 380 kts 132°
2026-05-04 12:15 18.28487 -65.34587 15301 ft 388 kts 133°
2026-05-04 12:16 18.26683 -65.32462 15774 ft 389 kts 133°
2026-05-04 12:16 18.24872 -65.30329 16162 ft 392 kts 133°
2026-05-04 12:16 18.23066 -65.28205 16544 ft 395 kts 133°
2026-05-04 12:16 18.21223 -65.26037 16945 ft 397 kts 133°
2026-05-04 12:17 18.19373 -65.23862 17339 ft 400 kts 133°
2026-05-04 12:17 18.17510 -65.21672 17691 ft 404 kts 134°
2026-05-04 12:17 18.16264 -65.20206 17898 ft 407 kts 134°
2026-05-04 12:17 18.13749 -65.17253 18407 ft 410 kts 134°
2026-05-04 12:18 18.11843 -65.15014 18788 ft 411 kts 134°
2026-05-04 12:18 18.09928 -65.12765 19163 ft 413 kts 133°
2026-05-04 12:18 18.08659 -65.11275 19402 ft 413 kts 134°
2026-05-04 12:18 18.06728 -65.09007 19722 ft 416 kts 133°
2026-05-04 12:19 18.04794 -65.06738 20122 ft 417 kts 133°
2026-05-04 12:19 18.02861 -65.04471 20520 ft 417 kts 133°
2026-05-04 12:19 18.00915 -65.02188 20835 ft 419 kts 133°
2026-05-04 12:19 17.98961 -64.99899 21194 ft 421 kts 132°
2026-05-04 12:20 17.97031 -64.97638 21561 ft 422 kts 132°
2026-05-04 12:20 17.95068 -64.95340 21904 ft 423 kts 131°
2026-05-04 12:20 17.93095 -64.93030 22236 ft 424 kts 131°
2026-05-04 12:20 17.91108 -64.90705 22553 ft 426 kts 131°
2026-05-04 12:21 17.89147 -64.88411 22871 ft 428 kts 131°
2026-05-04 12:21 17.87153 -64.86082 23193 ft 429 kts 131°
2026-05-04 12:21 17.85159 -64.83751 23508 ft 430 kts 130°
2026-05-04 12:21 17.83158 -64.81415 23824 ft 431 kts 131°
2026-05-04 12:22 17.81144 -64.79062 23972 ft 435 kts 131°
2026-05-04 12:22 17.79113 -64.76692 24191 ft 437 kts 131°
2026-05-04 12:22 17.77065 -64.74301 24374 ft 441 kts 131°
2026-05-04 12:22 17.74949 -64.71966 24572 ft 443 kts 136°
2026-05-04 12:23 17.72580 -64.69938 24782 ft 446 kts 145°
2026-05-04 12:23 17.69929 -64.68218 24943 ft 449 kts 149°
2026-05-04 12:23 17.67189 -64.66623 25147 ft 451 kts 151°
2026-05-04 12:23 17.64383 -64.65088 25326 ft 454 kts 152°
2026-05-04 12:24 17.61553 -64.63584 25525 ft 457 kts 153°
2026-05-04 12:24 17.58706 -64.62083 25812 ft 456 kts 153°
2026-05-04 12:24 17.55887 -64.60594 26054 ft 457 kts 153°
2026-05-04 12:24 17.53049 -64.59086 26333 ft 457 kts 153°
2026-05-04 12:25 17.50207 -64.57569 26553 ft 459 kts 153°
2026-05-04 12:25 17.47392 -64.56060 26845 ft 459 kts 153°
2026-05-04 12:25 17.44525 -64.54520 26964 ft 464 kts 153°
2026-05-04 12:25 17.41654 -64.52977 27309 ft 461 kts 153°
2026-05-04 12:26 17.38794 -64.51440 27664 ft 460 kts 153°
2026-05-04 12:26 17.35948 -64.49910 28060 ft 457 kts 153°
2026-05-04 12:26 17.33148 -64.48406 28307 ft 459 kts 154°
2026-05-04 12:26 17.30292 -64.46874 28441 ft 462 kts 153°
2026-05-04 12:27 17.27426 -64.45336 28736 ft 462 kts 154°
2026-05-04 12:27 17.24561 -64.43800 28986 ft 463 kts 153°
2026-05-04 12:27 17.21700 -64.42267 29395 ft 459 kts 154°
2026-05-04 12:27 17.18880 -64.40756 29682 ft 459 kts 154°
2026-05-04 12:28 17.16043 -64.39237 30065 ft 457 kts 154°
2026-05-04 12:28 17.13201 -64.37716 30237 ft 459 kts 154°
2026-05-04 12:28 17.10351 -64.36191 30461 ft 459 kts 154°
2026-05-04 12:28 17.07504 -64.34669 30639 ft 460 kts 154°
2026-05-04 12:29 17.04655 -64.33145 30888 ft 460 kts 154°
2026-05-04 12:29 17.01803 -64.31620 30966 ft 459 kts 154°
2026-05-04 12:29 16.96141 -64.28595 30980 ft 458 kts 154°
2026-05-04 12:30 16.90449 -64.25555 30982 ft 459 kts 154°
2026-05-04 12:30 16.84789 -64.22535 30984 ft 459 kts 154°
2026-05-04 12:31 16.79080 -64.19491 30979 ft 458 kts 154°
2026-05-04 12:31 16.73395 -64.16462 30982 ft 466 kts 154°
2026-05-04 12:32 16.64601 -64.11782 30979 ft 478 kts 154°
2026-05-04 12:33 16.58646 -64.08614 30997 ft 485 kts 154°
2026-05-04 12:33 16.52589 -64.05394 30984 ft 490 kts 154°
2026-05-04 12:34 16.46507 -64.02163 30981 ft 495 kts 154°
2026-05-04 12:34 16.40344 -63.98892 30981 ft 497 kts 154°
2026-05-04 12:35 16.34204 -63.95635 30984 ft 497 kts 154°
2026-05-04 12:35 16.28027 -63.92360 30977 ft 498 kts 154°
2026-05-04 12:36 16.21849 -63.89088 30983 ft 497 kts 154°
2026-05-04 12:36 16.15676 -63.85821 30981 ft 497 kts 154°
2026-05-04 12:37 16.09536 -63.82573 30979 ft 498 kts 154°
2026-05-04 12:37 16.03341 -63.79299 30977 ft 497 kts 154°
2026-05-04 12:38 15.97202 -63.76056 30981 ft 499 kts 154°
2026-05-04 12:38 15.91002 -63.72784 30981 ft 499 kts 154°
2026-05-04 12:39 15.84847 -63.69538 30978 ft 498 kts 154°
2026-05-04 12:39 15.78669 -63.66281 30979 ft 498 kts 154°
2026-05-04 12:40 15.72479 -63.63021 30979 ft 498 kts 154°
2026-05-04 12:40 15.66280 -63.59758 30980 ft 498 kts 154°
2026-05-04 12:41 15.60126 -63.56521 30982 ft 500 kts 154°
2026-05-04 12:41 15.53879 -63.53238 30981 ft 503 kts 154°
2026-05-04 12:42 15.47633 -63.49957 30976 ft 505 kts 154°
2026-05-04 12:42 15.41340 -63.46654 30980 ft 507 kts 154°
2026-05-04 12:43 15.35074 -63.43366 30979 ft 507 kts 154°
2026-05-04 12:43 15.28771 -63.40062 30976 ft 506 kts 154°
2026-05-04 12:44 15.22473 -63.36763 30981 ft 507 kts 154°
2026-05-04 12:44 15.16193 -63.33476 30975 ft 507 kts 154°
2026-05-04 12:45 15.09892 -63.30179 30976 ft 507 kts 154°
2026-05-04 12:45 15.03621 -63.26901 30975 ft 507 kts 154°
2026-05-04 12:46 14.97454 -63.23351 30977 ft 508 kts 149°
2026-05-04 12:46 14.91410 -63.19512 31009 ft 508 kts 149°
2026-05-04 12:46 14.88415 -63.17582 31174 ft 505 kts 149°
2026-05-04 12:47 14.85435 -63.15657 31271 ft 504 kts 149°
2026-05-04 12:47 14.79526 -63.11846 31417 ft 503 kts 149°
2026-05-04 12:47 14.76562 -63.09939 31601 ft 500 kts 149°
2026-05-04 12:48 14.73616 -63.08046 31834 ft 496 kts 149°
2026-05-04 12:48 14.70688 -63.06166 32059 ft 493 kts 149°
2026-05-04 12:48 14.67785 -63.04303 32257 ft 491 kts 149°
2026-05-04 12:48 14.64878 -63.02439 32429 ft 488 kts 149°
2026-05-04 12:49 14.62030 -63.00613 32623 ft 487 kts 149°
2026-05-04 12:49 14.59149 -62.98766 32819 ft 485 kts 149°
2026-05-04 12:49 14.56284 -62.96930 32954 ft 485 kts 149°
2026-05-04 12:50 14.50513 -62.93235 32976 ft 490 kts 149°
2026-05-04 12:50 14.44726 -62.89532 32975 ft 495 kts 149°
2026-05-04 12:51 14.38831 -62.85760 32974 ft 499 kts 149°
2026-05-04 12:51 14.32888 -62.81961 32980 ft 503 kts 149°
2026-05-04 12:52 14.26948 -62.78165 32976 ft 506 kts 149°
2026-05-04 12:52 14.20935 -62.74325 32970 ft 509 kts 149°
2026-05-04 12:53 14.14948 -62.70504 32971 ft 509 kts 149°
2026-05-04 12:53 14.08912 -62.66655 32976 ft 509 kts 149°
2026-05-04 12:54 14.02879 -62.62809 32969 ft 509 kts 149°
2026-05-04 12:54 13.96842 -62.58964 32973 ft 509 kts 149°
2026-05-04 12:55 13.90841 -62.55144 32969 ft 510 kts 149°
2026-05-04 12:55 13.84790 -62.51295 32973 ft 510 kts 149°
2026-05-04 12:56 13.78777 -62.47472 32963 ft 510 kts 149°
2026-05-04 12:56 13.72721 -62.43624 32969 ft 510 kts 149°
2026-05-04 12:57 13.66671 -62.39782 32970 ft 510 kts 149°
2026-05-04 12:57 13.60659 -62.35967 32969 ft 510 kts 150°
2026-05-04 12:58 13.54581 -62.32113 32970 ft 511 kts 150°
2026-05-04 12:58 13.48521 -62.28272 32972 ft 511 kts 150°
2026-05-04 12:59 13.42489 -62.24451 32969 ft 511 kts 150°
2026-05-04 12:59 13.36420 -62.20609 32971 ft 511 kts 150°
2026-05-04 13:00 13.30402 -62.16802 32969 ft 511 kts 150°
2026-05-04 13:00 13.24342 -62.12969 32967 ft 511 kts 150°
2026-05-04 13:01 13.18297 -62.09150 32971 ft 512 kts 150°
2026-05-04 13:01 13.12210 -62.05307 32969 ft 512 kts 150°
2026-05-04 13:02 13.06174 -62.01497 32969 ft 512 kts 150°
2026-05-04 13:02 13.00092 -61.97661 32969 ft 512 kts 150°
2026-05-04 13:03 12.94057 -61.93856 32969 ft 512 kts 150°
2026-05-04 13:03 12.87974 -61.90023 32968 ft 511 kts 150°
2026-05-04 13:04 12.81908 -61.86204 32966 ft 511 kts 150°
2026-05-04 13:04 12.75846 -61.82389 32965 ft 511 kts 150°
2026-05-04 13:05 12.69806 -61.78590 32963 ft 511 kts 150°
2026-05-04 13:05 12.63766 -61.74793 32960 ft 511 kts 150°
2026-05-04 13:06 12.57701 -61.70983 32957 ft 511 kts 150°
2026-05-04 13:06 12.51624 -61.67167 32954 ft 512 kts 150°
2026-05-04 13:07 12.45542 -61.63350 32961 ft 512 kts 150°
2026-05-04 13:07 12.39499 -61.59560 32951 ft 512 kts 150°
2026-05-04 13:08 12.33420 -61.55750 32952 ft 511 kts 150°
2026-05-04 13:08 12.27376 -61.51963 32948 ft 512 kts 150°
2026-05-04 13:09 12.22313 -61.48792 32948 ft 512 kts 150°
2026-05-04 13:09 12.16232 -61.44986 32951 ft 512 kts 150°
2026-05-04 13:10 12.10152 -61.41183 32949 ft 512 kts 150°
2026-05-04 13:10 12.04114 -61.37407 32948 ft 512 kts 150°
2026-05-04 13:11 11.98016 -61.33597 32957 ft 512 kts 150°
2026-05-04 13:11 11.91939 -61.29802 32957 ft 512 kts 150°
2026-05-04 13:12 11.85884 -61.26022 32954 ft 512 kts 150°
2026-05-04 13:12 11.79830 -61.22245 32946 ft 512 kts 150°
2026-05-04 13:13 11.73776 -61.18469 32950 ft 504 kts 150°
2026-05-04 13:13 11.67786 -61.14734 33033 ft 503 kts 150°
2026-05-04 13:14 11.61845 -61.11035 33174 ft 503 kts 150°
2026-05-04 13:14 11.55852 -61.07305 33299 ft 504 kts 151°
2026-05-04 13:15 11.49846 -61.03567 33046 ft 506 kts 151°
2026-05-04 13:15 11.43818 -60.99818 32951 ft 508 kts 151°
2026-05-04 13:16 11.37759 -60.96052 32948 ft 510 kts 151°
2026-05-04 13:16 11.31735 -60.92309 32945 ft 510 kts 151°
2026-05-04 13:17 11.25668 -60.88541 32944 ft 510 kts 151°
2026-05-04 13:17 11.19600 -60.84774 32959 ft 510 kts 151°
2026-05-04 13:18 11.13568 -60.81032 32953 ft 510 kts 152°
2026-05-04 13:18 11.07494 -60.77265 32957 ft 510 kts 152°
2026-05-04 13:19 11.01430 -60.73506 32964 ft 510 kts 152°
2026-05-04 13:19 10.95390 -60.69764 32959 ft 510 kts 152°
2026-05-04 13:20 10.89300 -60.65994 32968 ft 510 kts 152°
2026-05-04 13:20 10.83270 -60.62261 32967 ft 510 kts 151°
2026-05-04 13:21 10.77206 -60.58509 32964 ft 507 kts 151°
2026-05-04 13:21 10.71201 -60.54796 32961 ft 507 kts 151°
2026-05-04 13:22 10.65169 -60.51069 32960 ft 507 kts 152°
2026-05-04 13:22 10.62138 -60.49197 32823 ft 508 kts 152°
2026-05-04 13:22 10.59118 -60.47332 32576 ft 508 kts 152°
2026-05-04 13:22 10.56124 -60.45483 32345 ft 508 kts 152°
2026-05-04 13:23 10.53101 -60.43617 32105 ft 508 kts 152°
2026-05-04 13:23 10.50074 -60.41749 31873 ft 509 kts 151°
2026-05-04 13:23 10.47046 -60.39879 31628 ft 508 kts 151°
2026-05-04 13:23 10.44030 -60.38018 31393 ft 507 kts 152°
2026-05-04 13:24 10.41012 -60.36156 31163 ft 508 kts 152°
2026-05-04 13:24 10.37987 -60.34292 30982 ft 508 kts 151°
2026-05-04 13:24 10.35001 -60.32451 30967 ft 509 kts 151°
2026-05-04 13:25 10.25893 -60.26839 30963 ft 509 kts 151°
2026-05-04 13:25 10.19853 -60.23119 30962 ft 509 kts 151°
2026-05-04 13:26 10.13789 -60.19386 30961 ft 508 kts 151°
2026-05-04 13:26 10.07767 -60.15679 30960 ft 504 kts 151°
2026-05-04 13:27 10.01803 -60.12011 30964 ft 504 kts 151°
2026-05-04 13:27 9.95792 -60.08316 30956 ft 504 kts 151°
2026-05-04 13:28 9.89788 -60.04627 30959 ft 504 kts 151°
2026-05-04 13:28 9.83810 -60.00955 30960 ft 504 kts 151°
2026-05-04 13:29 9.77806 -59.97268 30960 ft 502 kts 151°
2026-05-04 13:29 9.71830 -59.93599 30961 ft 501 kts 151°
2026-05-04 13:30 9.65864 -59.89940 30962 ft 501 kts 152°
2026-05-04 13:30 9.59922 -59.86297 30961 ft 501 kts 152°
2026-05-04 13:31 9.53944 -59.82633 30959 ft 501 kts 152°
2026-05-04 13:31 9.48007 -59.78994 30958 ft 501 kts 152°
2026-05-04 13:32 9.42023 -59.75330 30959 ft 501 kts 152°
2026-05-04 13:32 9.36043 -59.71669 30957 ft 501 kts 152°
2026-05-04 13:33 9.30086 -59.68023 30963 ft 501 kts 152°
2026-05-04 13:33 9.24139 -59.64385 30962 ft 501 kts 152°
2026-05-04 13:34 9.18160 -59.60729 30961 ft 503 kts 152°
2026-05-04 13:34 9.12183 -59.57077 30958 ft 505 kts 152°
2026-05-04 13:35 9.03142 -59.51554 30959 ft 505 kts 152°
2026-05-04 13:36 8.97118 -59.47875 30958 ft 505 kts 152°
2026-05-04 13:36 8.91104 -59.44232 30955 ft 505 kts 153°
2026-05-04 13:37 8.84925 -59.40865 30957 ft 504 kts 155°
2026-05-04 13:37 8.78732 -59.37645 30960 ft 503 kts 155°
2026-05-04 13:38 8.72525 -59.34399 30961 ft 501 kts 155°
2026-05-04 13:38 8.66334 -59.31130 30959 ft 501 kts 155°
2026-05-04 13:39 8.60147 -59.27851 30960 ft 502 kts 155°
2026-05-04 13:39 8.53999 -59.24593 30959 ft 502 kts 155°
2026-05-04 13:40 8.47804 -59.21312 30953 ft 502 kts 155°
2026-05-04 13:40 8.41615 -59.18037 30955 ft 500 kts 155°
2026-05-04 13:41 8.35454 -59.14777 30954 ft 499 kts 155°
2026-05-04 13:41 8.29307 -59.11526 30956 ft 499 kts 155°
2026-05-04 13:42 8.20126 -59.06673 30959 ft 499 kts 155°
2026-05-04 13:42 8.13967 -59.03419 30961 ft 499 kts 155°
2026-05-04 13:43 8.07812 -59.00168 30959 ft 498 kts 155°
2026-05-04 13:43 8.01716 -58.96949 30959 ft 497 kts 155°
2026-05-04 13:44 7.95580 -58.93711 30959 ft 497 kts 155°
2026-05-04 13:44 7.89448 -58.90475 30958 ft 497 kts 155°
2026-05-04 13:45 7.83314 -58.87240 30959 ft 497 kts 155°
2026-05-04 13:45 7.77175 -58.84003 30955 ft 497 kts 155°
2026-05-04 13:46 7.71052 -58.80775 30958 ft 496 kts 155°
2026-05-04 13:46 7.64937 -58.77553 30952 ft 496 kts 155°
2026-05-04 13:47 7.58860 -58.74352 30952 ft 496 kts 155°
2026-05-04 13:47 7.52746 -58.71132 30951 ft 496 kts 155°
2026-05-04 13:48 7.46626 -58.67910 30948 ft 496 kts 155°
2026-05-04 13:48 7.40519 -58.64697 30948 ft 494 kts 154°
2026-05-04 13:49 7.34437 -58.61497 30951 ft 493 kts 154°
2026-05-04 13:49 7.28348 -58.58294 30947 ft 493 kts 154°
2026-05-04 13:50 7.22265 -58.55096 30943 ft 493 kts 154°
2026-05-04 13:50 7.16180 -58.51898 30942 ft 493 kts 154°
2026-05-04 13:51 7.10102 -58.48705 30942 ft 493 kts 154°
2026-05-04 13:51 7.04030 -58.45513 30938 ft 492 kts 154°
2026-05-04 13:52 6.94921 -58.40731 30936 ft 492 kts 154°
2026-05-04 13:53 6.88890 -58.37566 30935 ft 492 kts 154°
2026-05-04 13:53 6.82821 -58.34381 30926 ft 492 kts 154°
2026-05-04 13:54 6.73714 -58.29604 30928 ft 492 kts 154°
2026-05-04 13:55 6.64623 -58.24836 30930 ft 491 kts 154°
2026-05-04 13:55 6.55524 -58.20067 30930 ft 491 kts 154°
2026-05-04 13:56 6.49462 -58.16891 30930 ft 492 kts 154°
2026-05-04 13:57 6.40352 -58.12120 30934 ft 491 kts 154°
2026-05-04 13:58 6.28223 -58.05770 30935 ft 492 kts 154°
2026-05-04 13:58 6.20145 -58.01543 30938 ft 491 kts 154°
2026-05-04 13:59 6.14078 -57.98369 30937 ft 491 kts 154°
2026-05-04 14:00 6.04981 -57.93611 30939 ft 492 kts 154°
2026-05-04 14:00 5.95881 -57.88854 30940 ft 492 kts 154°
2026-05-04 14:01 5.89811 -57.85682 30941 ft 492 kts 154°
2026-05-04 14:02 5.80711 -57.80929 30940 ft 491 kts 154°
2026-05-04 14:02 5.74643 -57.77759 30940 ft 491 kts 154°
2026-05-04 14:03 5.68577 -57.74591 30940 ft 492 kts 154°
2026-05-04 14:03 5.62546 -57.71443 30940 ft 492 kts 154°
2026-05-04 14:04 5.53439 -57.66690 30943 ft 492 kts 154°
2026-05-04 14:04 5.47367 -57.63523 30944 ft 491 kts 153°
2026-05-04 14:05 5.38255 -57.58770 30943 ft 492 kts 153°
2026-05-04 14:06 5.32182 -57.55603 30943 ft 492 kts 154°
2026-05-04 14:06 5.26103 -57.52435 30946 ft 492 kts 153°
2026-05-04 14:07 5.20029 -57.49270 30944 ft 492 kts 153°
2026-05-04 14:07 5.13955 -57.46104 30949 ft 492 kts 153°
2026-05-04 14:08 5.07896 -57.42948 30947 ft 490 kts 153°
2026-05-04 14:08 5.01849 -57.39798 30945 ft 490 kts 153°
2026-05-04 14:09 4.92816 -57.35084 30946 ft 490 kts 153°
2026-05-04 14:10 4.83738 -57.30344 30946 ft 490 kts 153°
2026-05-04 14:10 4.77687 -57.27186 30949 ft 489 kts 153°
2026-05-04 14:11 4.71660 -57.24042 30950 ft 488 kts 153°
2026-05-04 14:11 4.62629 -57.19332 30948 ft 488 kts 153°
2026-05-04 14:12 4.56608 -57.16193 30952 ft 488 kts 153°
2026-05-04 14:13 4.47575 -57.11484 30951 ft 488 kts 152°
2026-05-04 14:13 4.41553 -57.08345 30951 ft 488 kts 152°
2026-05-04 14:14 4.35532 -57.05208 30954 ft 488 kts 152°
2026-05-04 14:14 4.26492 -57.00498 30954 ft 488 kts 152°
2026-05-04 14:15 4.14446 -56.94224 30955 ft 488 kts 152°
2026-05-04 14:16 4.05482 -56.89556 30956 ft 484 kts 152°
2026-05-04 14:17 3.96515 -56.84887 30955 ft 484 kts 152°
2026-05-04 14:18 3.87550 -56.80222 30959 ft 485 kts 152°
2026-05-04 14:19 3.75582 -56.73996 30956 ft 484 kts 152°
2026-05-04 14:19 3.69614 -56.70892 30952 ft 482 kts 152°
2026-05-04 14:20 3.63660 -56.67796 30955 ft 482 kts 152°
2026-05-04 14:20 3.57714 -56.64704 30955 ft 482 kts 152°
2026-05-04 14:21 3.48799 -56.60070 30957 ft 481 kts 152°
2026-05-04 14:21 3.42863 -56.56985 30953 ft 480 kts 152°
2026-05-04 14:22 3.36958 -56.53916 30954 ft 482 kts 152°
2026-05-04 14:22 3.31019 -56.50830 30952 ft 480 kts 152°
2026-05-04 14:23 3.22127 -56.46210 30953 ft 479 kts 152°
2026-05-04 14:24 3.16223 -56.43144 30955 ft 478 kts 152°
2026-05-04 14:24 3.10325 -56.40079 30956 ft 477 kts 152°
2026-05-04 14:25 3.04436 -56.37020 30956 ft 477 kts 152°
2026-05-04 14:25 2.95593 -56.32429 30956 ft 477 kts 152°
2026-05-04 14:26 2.89705 -56.29371 30954 ft 477 kts 152°
2026-05-04 14:26 2.83863 -56.26339 30956 ft 476 kts 152°
2026-05-04 14:27 2.77984 -56.23287 30956 ft 476 kts 152°
2026-05-04 14:27 2.72105 -56.20235 30957 ft 475 kts 152°
2026-05-04 14:28 2.66234 -56.17188 30956 ft 476 kts 152°
2026-05-04 14:28 2.60359 -56.14140 30956 ft 476 kts 152°
2026-05-04 14:29 2.48604 -56.08042 30953 ft 475 kts 152°
2026-05-04 14:30 2.42736 -56.04999 30956 ft 475 kts 152°
2026-05-04 14:31 2.33984 -56.00460 30952 ft 475 kts 152°
2026-05-04 14:32 2.22252 -55.94378 30950 ft 475 kts 152°
2026-05-04 14:32 2.16304 -55.91489 30952 ft 476 kts 154°
2026-05-04 14:33 2.10278 -55.88686 30947 ft 478 kts 154°
2026-05-04 14:33 2.04257 -55.85882 30946 ft 478 kts 154°
2026-05-04 14:34 1.98240 -55.83060 30946 ft 478 kts 154°
2026-05-04 14:34 1.92229 -55.80232 30946 ft 477 kts 154°
2026-05-04 14:35 1.86216 -55.77400 30945 ft 477 kts 154°
2026-05-04 14:35 1.80208 -55.74574 30946 ft 477 kts 154°
2026-05-04 14:36 1.74200 -55.71745 30946 ft 477 kts 154°
2026-05-04 14:36 1.68193 -55.68915 30947 ft 477 kts 154°
2026-05-04 14:37 1.62226 -55.66104 30947 ft 477 kts 154°
2026-05-04 14:37 1.56216 -55.63273 30946 ft 478 kts 154°
2026-05-04 14:38 1.50191 -55.60437 30952 ft 479 kts 154°
2026-05-04 14:38 1.44159 -55.57598 30950 ft 479 kts 154°
2026-05-04 14:39 1.38134 -55.54763 30952 ft 479 kts 154°
2026-05-04 14:39 1.32116 -55.51933 30951 ft 478 kts 154°
2026-05-04 14:40 1.23101 -55.47693 30954 ft 478 kts 154°
2026-05-04 14:40 1.17063 -55.44853 30951 ft 480 kts 154°
2026-05-04 14:41 1.11010 -55.42005 30951 ft 481 kts 153°
2026-05-04 14:42 0.98907 -55.36313 30953 ft 480 kts 153°
2026-05-04 14:42 0.92863 -55.33471 30951 ft 480 kts 154°
2026-05-04 14:43 0.86807 -55.30623 30954 ft 481 kts 153°
2026-05-04 14:43 0.80788 -55.27793 30955 ft 482 kts 153°
2026-05-04 14:44 0.74712 -55.24936 30958 ft 483 kts 153°
2026-05-04 14:44 0.68640 -55.22081 30957 ft 483 kts 153°
2026-05-04 14:45 0.62561 -55.19222 30951 ft 483 kts 153°
2026-05-04 14:45 0.56484 -55.16365 30957 ft 483 kts 153°
2026-05-04 14:46 0.50390 -55.13500 30958 ft 483 kts 153°
2026-05-04 14:46 0.45327 -55.11118 30959 ft 484 kts 153°
2026-05-04 14:47 0.39230 -55.08251 30956 ft 484 kts 153°
2026-05-04 14:47 0.33150 -55.05394 30956 ft 483 kts 153°
2026-05-04 14:48 0.27057 -55.02529 30956 ft 484 kts 153°
2026-05-04 14:48 0.20986 -54.99675 30956 ft 484 kts 153°
2026-05-04 14:49 0.14885 -54.96807 30957 ft 485 kts 153°
2026-05-04 14:49 0.08783 -54.93938 30956 ft 485 kts 153°
2026-05-04 14:50 0.02670 -54.91065 30957 ft 486 kts 153°
2026-05-04 14:50 -0.03451 -54.88187 30956 ft 485 kts 154°
2026-05-04 14:51 -0.09552 -54.85319 30958 ft 484 kts 153°
2026-05-04 14:51 -0.15640 -54.82457 30956 ft 483 kts 154°
2026-05-04 14:52 -0.21731 -54.79593 30956 ft 484 kts 154°
2026-05-04 14:52 -0.27830 -54.76725 30956 ft 484 kts 154°
2026-05-04 14:53 -0.33924 -54.73860 30957 ft 485 kts 154°
2026-05-04 14:53 -0.39994 -54.71006 30956 ft 485 kts 153°
2026-05-04 14:54 -0.46110 -54.68132 30956 ft 485 kts 154°
2026-05-04 14:54 -0.52215 -54.65261 30956 ft 485 kts 153°
2026-05-04 14:55 -0.58315 -54.62393 30955 ft 485 kts 154°
2026-05-04 14:55 -0.64428 -54.59518 30951 ft 484 kts 153°
2026-05-04 14:56 -0.70515 -54.56656 30951 ft 484 kts 154°
2026-05-04 14:56 -0.76579 -54.53804 30947 ft 484 kts 154°
2026-05-04 14:57 -0.82674 -54.50939 30946 ft 483 kts 153°
2026-05-04 14:57 -0.88761 -54.48078 30945 ft 483 kts 153°
2026-05-04 14:58 -0.94842 -54.45218 30947 ft 483 kts 153°
2026-05-04 14:58 -1.00932 -54.42353 30943 ft 484 kts 153°
2026-05-04 14:59 -1.07024 -54.39487 30943 ft 484 kts 153°
2026-05-04 15:00 -1.16162 -54.35191 30941 ft 484 kts 153°
2026-05-04 15:00 -1.22260 -54.32322 30946 ft 484 kts 153°
2026-05-04 15:01 -1.31361 -54.28040 30937 ft 485 kts 154°
2026-05-04 15:01 -1.37469 -54.25168 30935 ft 485 kts 154°
2026-05-04 15:02 -1.43581 -54.22294 30932 ft 485 kts 154°
2026-05-04 15:02 -1.49683 -54.19422 30929 ft 485 kts 154°
2026-05-04 15:03 -1.55786 -54.16550 30928 ft 485 kts 154°
2026-05-04 15:03 -1.61885 -54.13680 30925 ft 484 kts 153°
2026-05-04 15:04 -1.67987 -54.10809 30929 ft 484 kts 154°
2026-05-04 15:04 -1.74077 -54.07943 30922 ft 483 kts 153°
2026-05-04 15:05 -1.80160 -54.05079 30923 ft 483 kts 154°
2026-05-04 15:05 -1.86248 -54.02212 30918 ft 484 kts 154°
2026-05-04 15:06 -1.92300 -53.99365 30917 ft 483 kts 154°
2026-05-04 15:07 -2.01450 -53.95059 30914 ft 484 kts 154°
2026-05-04 15:07 -2.07542 -53.92191 30915 ft 483 kts 154°
2026-05-04 15:08 -2.13631 -53.89324 30915 ft 484 kts 153°
2026-05-04 15:08 -2.19712 -53.86460 30912 ft 483 kts 153°
2026-05-04 15:09 -2.25795 -53.83595 30916 ft 482 kts 154°
2026-05-04 15:09 -2.31836 -53.80750 30918 ft 483 kts 153°
2026-05-04 15:10 -2.40958 -53.76452 30919 ft 484 kts 154°
2026-05-04 15:11 -2.50109 -53.72142 30921 ft 484 kts 154°
2026-05-04 15:11 -2.56191 -53.69276 30919 ft 483 kts 154°
2026-05-04 15:12 -2.62276 -53.66409 30917 ft 482 kts 154°
2026-05-04 15:12 -2.68339 -53.63551 30920 ft 482 kts 154°
2026-05-04 15:13 -2.74410 -53.60688 30919 ft 483 kts 154°
2026-05-04 15:13 -2.80492 -53.57822 30916 ft 482 kts 154°
2026-05-04 15:14 -2.86561 -53.54960 30923 ft 482 kts 154°
2026-05-04 15:14 -2.92630 -53.52098 30922 ft 483 kts 154°
2026-05-04 15:15 -2.98708 -53.49232 30919 ft 481 kts 154°
2026-05-04 15:15 -3.04731 -53.46391 30921 ft 482 kts 154°
2026-05-04 15:16 -3.13803 -53.42112 30921 ft 479 kts 154°
2026-05-04 15:17 -3.22854 -53.37842 30923 ft 480 kts 154°
2026-05-04 15:17 -3.31922 -53.33562 30920 ft 481 kts 154°
2026-05-04 15:18 -3.37986 -53.30701 30921 ft 482 kts 154°
2026-05-04 15:19 -3.47082 -53.26409 30920 ft 480 kts 154°
2026-05-04 15:19 -3.56158 -53.22125 30923 ft 481 kts 154°
2026-05-04 15:20 -3.62221 -53.19262 30923 ft 481 kts 154°
2026-05-04 15:20 -3.68272 -53.16405 30923 ft 480 kts 154°
2026-05-04 15:21 -3.74331 -53.13544 30923 ft 481 kts 154°
2026-05-04 15:22 -3.83356 -53.09281 30922 ft 481 kts 154°
2026-05-04 15:22 -3.92453 -53.04982 30939 ft 482 kts 154°
2026-05-04 15:23 -3.98506 -53.02116 30924 ft 480 kts 154°
2026-05-04 15:23 -4.04553 -52.99261 30933 ft 481 kts 154°
2026-05-04 15:24 -4.16661 -52.93541 30935 ft 481 kts 154°
2026-05-04 15:25 -4.22712 -52.90680 30933 ft 481 kts 154°
2026-05-04 15:26 -4.31758 -52.86402 30932 ft 481 kts 154°
2026-05-04 15:26 -4.40839 -52.82106 30931 ft 482 kts 154°
2026-05-04 15:27 -4.49946 -52.77796 30932 ft 481 kts 154°
2026-05-04 15:28 -4.59023 -52.73498 30931 ft 481 kts 155°
2026-05-04 15:29 -4.68087 -52.69205 30933 ft 479 kts 155°
2026-05-04 15:30 -4.89220 -52.59193 30932 ft 481 kts 155°
2026-05-04 15:31 -4.98303 -52.54887 30926 ft 481 kts 155°
2026-05-04 15:32 -5.13378 -52.47737 30929 ft 481 kts 155°
2026-05-04 15:34 -5.28460 -52.40582 30924 ft 478 kts 155°
2026-05-04 15:34 -5.36479 -52.36775 30925 ft 480 kts 155°
2026-05-04 15:35 -5.45530 -52.32477 30923 ft 479 kts 155°
2026-05-04 15:36 -5.54602 -52.28169 30919 ft 481 kts 155°
2026-05-04 15:36 -5.60604 -52.25315 30922 ft 479 kts 155°
2026-05-04 15:37 -5.66618 -52.22456 30920 ft 478 kts 155°
2026-05-04 15:37 -5.72649 -52.19591 30921 ft 479 kts 156°
2026-05-04 15:38 -5.78672 -52.16726 30922 ft 478 kts 156°
2026-05-04 15:38 -5.84690 -52.13865 30924 ft 478 kts 156°
2026-05-04 15:39 -5.90711 -52.11002 30920 ft 479 kts 156°
2026-05-04 15:40 -5.99749 -52.06701 30925 ft 479 kts 156°
2026-05-04 15:40 -6.05775 -52.03833 30921 ft 478 kts 156°
2026-05-04 15:41 -6.11756 -52.00986 30921 ft 479 kts 156°
2026-05-04 15:41 -6.17793 -51.98112 30920 ft 480 kts 156°
2026-05-04 15:42 -6.23831 -51.95235 30916 ft 479 kts 156°
2026-05-04 15:42 -6.29844 -51.92370 30916 ft 478 kts 156°
2026-05-04 15:43 -6.35863 -51.89502 30912 ft 479 kts 156°
2026-05-04 15:43 -6.41887 -51.86630 30913 ft 478 kts 156°
2026-05-04 15:44 -6.47895 -51.83764 30910 ft 477 kts 156°
2026-05-04 15:44 -6.53862 -51.80920 30911 ft 478 kts 156°
2026-05-04 15:45 -6.59885 -51.78046 30912 ft 479 kts 156°
2026-05-04 15:45 -6.65916 -51.75168 30910 ft 480 kts 156°
2026-05-04 15:46 -6.71957 -51.72285 30910 ft 480 kts 156°
2026-05-04 15:46 -6.77956 -51.69420 30911 ft 480 kts 156°
2026-05-04 15:47 -6.83995 -51.66534 30907 ft 480 kts 156°
2026-05-04 15:47 -6.90025 -51.63651 30907 ft 480 kts 156°
2026-05-04 15:48 -6.96068 -51.60762 30907 ft 481 kts 156°
2026-05-04 15:48 -7.05142 -51.56422 30908 ft 481 kts 156°
2026-05-04 15:49 -7.11148 -51.53547 30909 ft 481 kts 156°
2026-05-04 15:49 -7.17192 -51.50656 30910 ft 481 kts 156°
2026-05-04 15:50 -7.23244 -51.47761 30910 ft 481 kts 156°
2026-05-04 15:50 -7.29299 -51.44864 30912 ft 482 kts 156°
2026-05-04 15:51 -7.35352 -51.41967 30912 ft 481 kts 156°
2026-05-04 15:51 -7.41401 -51.39070 30910 ft 481 kts 156°
2026-05-04 15:52 -7.47417 -51.36189 30915 ft 482 kts 156°
2026-05-04 15:52 -7.53475 -51.33289 30921 ft 482 kts 156°
2026-05-04 15:53 -7.59537 -51.30382 30919 ft 482 kts 156°
2026-05-04 15:53 -7.65613 -51.27528 30919 ft 482 kts 157°
2026-05-04 15:54 -7.71745 -51.24786 30919 ft 481 kts 157°
2026-05-04 15:54 -7.77839 -51.22081 30919 ft 480 kts 157°
2026-05-04 15:55 -7.83946 -51.19356 30919 ft 480 kts 157°
2026-05-04 15:55 -7.90058 -51.16617 30918 ft 480 kts 157°
2026-05-04 15:56 -7.96165 -51.13878 30915 ft 480 kts 157°
2026-05-04 15:56 -8.02219 -51.11161 30915 ft 478 kts 157°
2026-05-04 15:57 -8.08293 -51.08436 30916 ft 478 kts 157°
2026-05-04 15:57 -8.14381 -51.05704 30917 ft 478 kts 157°
2026-05-04 15:58 -8.20457 -51.02975 30913 ft 478 kts 157°
2026-05-04 15:58 -8.26488 -51.00267 30914 ft 477 kts 157°
2026-05-04 15:59 -8.32583 -50.97529 30913 ft 476 kts 157°
2026-05-04 15:59 -8.38607 -50.94820 30914 ft 476 kts 157°
2026-05-04 16:00 -8.44669 -50.92094 30912 ft 475 kts 157°
2026-05-04 16:00 -8.50705 -50.89378 30910 ft 475 kts 157°
2026-05-04 16:01 -8.56716 -50.86674 30905 ft 475 kts 156°
2026-05-04 16:01 -8.62767 -50.83950 30907 ft 475 kts 157°
2026-05-04 16:02 -8.68809 -50.81229 30903 ft 474 kts 157°
2026-05-04 16:03 -8.77867 -50.77150 30900 ft 476 kts 157°
2026-05-04 16:03 -8.83918 -50.74423 30901 ft 476 kts 156°
2026-05-04 16:04 -8.89940 -50.71706 30898 ft 476 kts 156°
2026-05-04 16:04 -8.98996 -50.67621 30899 ft 475 kts 156°
2026-05-04 16:05 -9.05052 -50.64888 30898 ft 475 kts 156°
2026-05-04 16:06 -9.14099 -50.60804 30899 ft 474 kts 156°
2026-05-04 16:07 -9.26097 -50.55387 30894 ft 475 kts 156°
2026-05-04 16:08 -9.38170 -50.49926 30895 ft 475 kts 156°
2026-05-04 16:09 -9.53293 -50.43084 30891 ft 476 kts 156°
2026-05-04 16:10 -9.65337 -50.37630 30890 ft 474 kts 156°
2026-05-04 16:11 -9.77402 -50.32161 30889 ft 475 kts 156°
2026-05-04 16:12 -9.95470 -50.23963 30888 ft 473 kts 156°
2026-05-04 16:13 -10.07468 -50.18515 30886 ft 474 kts 156°
2026-05-04 16:14 -10.19507 -50.13044 30879 ft 475 kts 156°
2026-05-04 16:16 -10.34564 -50.06193 30874 ft 476 kts 156°
2026-05-04 16:17 -10.49649 -49.99332 30875 ft 475 kts 156°
2026-05-04 16:18 -10.61781 -49.93989 30869 ft 475 kts 159°
2026-05-04 16:19 -10.77154 -49.87956 30870 ft 475 kts 159°
2026-05-04 16:20 -10.92540 -49.81834 30868 ft 475 kts 159°
2026-05-04 16:22 -11.06884 -49.76114 30874 ft 475 kts 159°
2026-05-04 16:23 -11.25341 -49.68748 30878 ft 474 kts 159°
2026-05-04 16:25 -11.43735 -49.61397 30879 ft 474 kts 159°
2026-05-04 16:26 -11.65190 -49.52809 30883 ft 473 kts 159°
2026-05-04 16:28 -11.80545 -49.46654 30887 ft 473 kts 159°
2026-05-04 16:29 -12.01993 -49.38044 30891 ft 474 kts 159°
2026-05-04 16:31 -12.17283 -49.31898 30893 ft 473 kts 159°
2026-05-04 16:32 -12.35688 -49.24488 30891 ft 473 kts 159°
2026-05-04 16:33 -12.47911 -49.19561 30891 ft 473 kts 159°
2026-05-04 16:34 -12.57108 -49.15851 30892 ft 473 kts 160°
2026-05-04 16:35 -12.75482 -49.08430 30892 ft 473 kts 160°
2026-05-04 16:36 -12.84702 -49.04701 30895 ft 475 kts 160°
2026-05-04 16:37 -12.93892 -49.00980 30891 ft 475 kts 160°
2026-05-04 16:38 -13.06200 -48.95992 30888 ft 475 kts 160°
2026-05-04 16:39 -13.21574 -48.89756 30888 ft 476 kts 160°
2026-05-04 16:40 -13.33870 -48.84761 30893 ft 477 kts 160°
2026-05-04 16:41 -13.49305 -48.78483 30900 ft 477 kts 160°
2026-05-04 16:43 -13.64726 -48.72202 30909 ft 478 kts 160°
2026-05-04 16:43 -13.74004 -48.68420 30913 ft 478 kts 160°
2026-05-04 16:45 -13.92576 -48.60837 30917 ft 480 kts 161°
2026-05-04 16:46 -14.08104 -48.54488 30923 ft 480 kts 161°
2026-05-04 16:47 -14.20526 -48.49403 30923 ft 481 kts 161°
2026-05-04 16:48 -14.32929 -48.44320 30930 ft 480 kts 161°
2026-05-04 16:49 -14.45354 -48.39221 30932 ft 480 kts 161°
2026-05-04 16:50 -14.57778 -48.34117 30942 ft 481 kts 161°
2026-05-04 16:51 -14.67116 -48.30279 30947 ft 481 kts 161°
2026-05-04 16:52 -14.79522 -48.25167 30943 ft 481 kts 161°
2026-05-04 16:53 -14.88873 -48.21316 30958 ft 482 kts 161°
2026-05-04 16:54 -15.01282 -48.16124 30950 ft 482 kts 160°
2026-05-04 16:55 -15.19947 -48.08220 30956 ft 483 kts 161°
2026-05-04 16:56 -15.35476 -48.01649 30969 ft 484 kts 161°
2026-05-04 16:57 -15.44822 -47.97691 30974 ft 484 kts 161°
2026-05-04 16:58 -15.57304 -47.92398 31015 ft 484 kts 161°
2026-05-04 17:00 -15.75964 -47.84469 31122 ft 484 kts 161°
2026-05-04 17:00 -15.85312 -47.80493 30995 ft 484 kts 161°
2026-05-04 17:01 -15.91552 -47.77835 30990 ft 484 kts 161°
2026-05-04 17:02 -16.03991 -47.72527 30987 ft 484 kts 161°
2026-05-04 17:03 -16.13342 -47.68533 30984 ft 484 kts 161°
2026-05-04 17:03 -16.22695 -47.64535 30985 ft 484 kts 161°
2026-05-04 17:04 -16.35155 -47.59202 30987 ft 486 kts 161°
2026-05-04 17:05 -16.47947 -47.55324 30992 ft 475 kts 179°
2026-05-04 17:06 -16.57839 -47.54647 30993 ft 474 kts 181°
2026-05-04 17:07 -16.65540 -47.54185 30989 ft 476 kts 178°
2026-05-04 17:07 -16.74298 -47.52949 30992 ft 477 kts 175°
2026-05-04 17:08 -16.84154 -47.51401 30991 ft 477 kts 175°
2026-05-04 17:09 -16.89617 -47.50541 30994 ft 478 kts 175°
2026-05-04 17:09 -16.97036 -47.49380 30997 ft 477 kts 175°
2026-05-04 17:10 -17.13441 -47.46820 30994 ft 477 kts 175°
2026-05-04 17:11 -17.20002 -47.45795 31003 ft 477 kts 176°
2026-05-04 17:12 -17.29848 -47.44255 30997 ft 477 kts 176°
2026-05-04 17:13 -17.46257 -47.41684 31001 ft 477 kts 176°
2026-05-04 17:14 -17.59332 -47.39631 31000 ft 477 kts 176°
2026-05-04 17:15 -17.69174 -47.38085 31006 ft 477 kts 176°
2026-05-04 17:16 -17.82318 -47.36015 31003 ft 477 kts 176°
2026-05-04 17:17 -17.95420 -47.33953 31003 ft 477 kts 176°
2026-05-04 17:18 -18.08528 -47.31884 30997 ft 476 kts 176°
2026-05-04 17:19 -18.21599 -47.29818 30988 ft 475 kts 176°
2026-05-04 17:20 -18.33577 -47.27921 30997 ft 475 kts 176°
2026-05-04 17:20 -18.43403 -47.26364 30998 ft 475 kts 176°
2026-05-04 17:21 -18.56433 -47.24297 30993 ft 475 kts 176°
2026-05-04 17:22 -18.62975 -47.23258 30991 ft 475 kts 176°
2026-05-04 17:23 -18.76052 -47.21177 30999 ft 475 kts 176°
2026-05-04 17:24 -18.85821 -47.19621 30997 ft 475 kts 176°
2026-05-04 17:25 -18.98886 -47.17538 30997 ft 474 kts 176°
2026-05-04 17:26 -19.11924 -47.15451 30995 ft 475 kts 176°
2026-05-04 17:27 -19.28298 -47.13048 31015 ft 474 kts 178°
2026-05-04 17:28 -19.41341 -47.11213 31070 ft 474 kts 178°
2026-05-04 17:29 -19.60957 -47.08419 31106 ft 474 kts 178°
2026-05-04 17:30 -19.70712 -47.07027 31004 ft 473 kts 178°
2026-05-04 17:31 -19.77241 -47.06095 31003 ft 473 kts 178°
2026-05-04 17:32 -19.93558 -47.03758 31006 ft 472 kts 178°
2026-05-04 17:33 -20.06553 -47.01903 31003 ft 472 kts 178°
2026-05-04 17:34 -20.19534 -47.00041 30995 ft 471 kts 178°
2026-05-04 17:35 -20.35793 -46.97705 30993 ft 471 kts 178°
2026-05-04 17:36 -20.42290 -46.96769 30999 ft 471 kts 178°
2026-05-04 17:36 -20.48756 -46.95838 30998 ft 471 kts 178°
2026-05-04 17:37 -20.55265 -46.94901 31000 ft 471 kts 178°
2026-05-04 17:37 -20.61770 -46.93961 31004 ft 470 kts 179°
2026-05-04 17:38 -20.68216 -46.93025 30999 ft 470 kts 179°
2026-05-04 17:38 -20.74710 -46.92088 31002 ft 470 kts 179°
2026-05-04 17:39 -20.84396 -46.90640 31008 ft 470 kts 178°
2026-05-04 17:39 -20.90859 -46.89622 31006 ft 469 kts 178°
2026-05-04 17:40 -20.97336 -46.88601 31005 ft 469 kts 178°
2026-05-04 17:40 -21.03757 -46.87595 31016 ft 469 kts 178°
2026-05-04 17:41 -21.10234 -46.86583 31005 ft 468 kts 178°
2026-05-04 17:41 -21.16690 -46.85572 31002 ft 468 kts 178°
2026-05-04 17:42 -21.23147 -46.84561 31003 ft 469 kts 178°
2026-05-04 17:42 -21.29558 -46.83558 30994 ft 468 kts 178°
2026-05-04 17:43 -21.36001 -46.82544 30989 ft 467 kts 178°
2026-05-04 17:43 -21.42439 -46.81528 31003 ft 468 kts 178°
2026-05-04 17:44 -21.48881 -46.80516 30992 ft 467 kts 178°
2026-05-04 17:44 -21.55314 -46.79510 31000 ft 467 kts 178°
2026-05-04 17:45 -21.61736 -46.78495 30974 ft 465 kts 178°
2026-05-04 17:45 -21.64930 -46.77987 30746 ft 463 kts 178°
2026-05-04 17:45 -21.68114 -46.77483 30534 ft 463 kts 178°
2026-05-04 17:46 -21.71271 -46.76985 30284 ft 462 kts 178°
2026-05-04 17:46 -21.74443 -46.76485 29523 ft 461 kts 178°
2026-05-04 17:46 -21.77583 -46.75986 29150 ft 450 kts 178°
2026-05-04 17:46 -21.80678 -46.75492 28700 ft 448 kts 178°
2026-05-04 17:47 -21.83762 -46.75005 28134 ft 448 kts 178°
2026-05-04 17:47 -21.86841 -46.74520 27580 ft 446 kts 178°
2026-05-04 17:47 -21.89905 -46.74036 27033 ft 443 kts 177°
2026-05-04 17:47 -21.92954 -46.73554 26492 ft 440 kts 177°
2026-05-04 17:48 -21.95975 -46.73075 25993 ft 437 kts 177°
2026-05-04 17:48 -21.98938 -46.72607 25483 ft 434 kts 177°
2026-05-04 17:48 -22.01923 -46.72134 24971 ft 432 kts 176°
2026-05-04 17:48 -22.04901 -46.71662 24472 ft 431 kts 176°
2026-05-04 17:49 -22.07908 -46.71187 23993 ft 443 kts 176°
2026-05-04 17:49 -22.10984 -46.70705 23486 ft 449 kts 176°
2026-05-04 17:49 -22.14076 -46.70216 22911 ft 449 kts 176°
2026-05-04 17:49 -22.17167 -46.69724 22348 ft 447 kts 175°
2026-05-04 17:50 -22.20239 -46.69233 21802 ft 445 kts 176°
2026-05-04 17:50 -22.23290 -46.68745 21254 ft 442 kts 176°
2026-05-04 17:50 -22.26292 -46.68266 20721 ft 440 kts 176°
2026-05-04 17:50 -22.29316 -46.67782 20205 ft 438 kts 176°
2026-05-04 17:51 -22.32320 -46.67304 19691 ft 436 kts 176°
2026-05-04 17:51 -22.35322 -46.66827 19237 ft 434 kts 176°
2026-05-04 17:51 -22.38306 -46.66713 19029 ft 425 kts 189°
2026-05-04 17:51 -22.41160 -46.67410 19006 ft 417 kts 205°
2026-05-04 17:52 -22.43634 -46.68960 18974 ft 407 kts 221°
2026-05-04 17:52 -22.45567 -46.71120 18537 ft 395 kts 233°
2026-05-04 17:52 -22.47255 -46.73455 17700 ft 394 kts 235°
2026-05-04 17:52 -22.48874 -46.75781 17007 ft 390 kts 234°
2026-05-04 17:53 -22.50500 -46.78112 16443 ft 383 kts 234°
2026-05-04 17:53 -22.52091 -46.80383 15915 ft 376 kts 234°
2026-05-04 17:53 -22.53660 -46.82615 15364 ft 370 kts 233°
2026-05-04 17:53 -22.55215 -46.84825 14796 ft 366 kts 233°
2026-05-04 17:54 -22.56731 -46.86976 14250 ft 362 kts 233°
2026-05-04 17:54 -22.58253 -46.89137 13635 ft 360 kts 232°
2026-05-04 17:54 -22.59775 -46.91296 12876 ft 361 kts 233°
2026-05-04 17:54 -22.61280 -46.93430 12493 ft 353 kts 233°
2026-05-04 17:55 -22.62768 -46.95542 12248 ft 351 kts 233°
2026-05-04 17:55 -22.64249 -46.97645 11988 ft 352 kts 233°
2026-05-04 17:55 -22.65734 -46.99756 11491 ft 352 kts 233°
2026-05-04 17:55 -22.67203 -47.01841 10609 ft 345 kts 234°
2026-05-04 17:56 -22.68691 -47.03859 9863 ft 339 kts 228°
2026-05-04 17:56 -22.70249 -47.05650 9353 ft 321 kts 236°
2026-05-04 17:56 -22.71175 -47.07746 9047 ft 300 kts 256°
2026-05-04 17:56 -22.71646 -47.09880 8738 ft 284 kts 260°
2026-05-04 17:57 -22.72037 -47.11950 8440 ft 278 kts 261°
2026-05-04 17:57 -22.72427 -47.13998 8113 ft 278 kts 260°
2026-05-04 17:57 -22.72824 -47.16044 7731 ft 276 kts 260°
2026-05-04 17:57 -22.73220 -47.18068 7348 ft 274 kts 260°
2026-05-04 17:58 -22.73618 -47.20086 6965 ft 272 kts 260°
2026-05-04 17:58 -22.74013 -47.22053 6581 ft 263 kts 260°
2026-05-04 17:58 -22.74407 -47.23957 6189 ft 255 kts 260°
2026-05-04 17:58 -22.74782 -47.25802 5807 ft 252 kts 260°
2026-05-04 17:59 -22.75150 -47.27650 5445 ft 250 kts 259°
2026-05-04 17:59 -22.75881 -47.29351 5229 ft 247 kts 227°
2026-05-04 17:59 -22.79057 -47.29966 5015 ft 257 kts 162°
2026-05-04 18:00 -22.80809 -47.29543 4874 ft 260 kts 178°
2026-05-04 18:00 -22.82621 -47.29507 4755 ft 260 kts 177°
2026-05-04 18:00 -22.84417 -47.29405 4594 ft 254 kts 176°
2026-05-04 18:00 -22.86161 -47.29270 4448 ft 249 kts 176°
2026-05-04 18:01 -22.87866 -47.29113 4358 ft 242 kts 175°
2026-05-04 18:01 -22.89443 -47.28590 4370 ft 236 kts 151°
2026-05-04 18:01 -22.90719 -47.27553 4374 ft 226 kts 132°
2026-05-04 18:02 -22.92564 -47.24877 4381 ft 216 kts 127°
2026-05-04 18:02 -22.93479 -47.23617 4207 ft 214 kts 127°
2026-05-04 18:02 -22.94386 -47.22346 3915 ft 209 kts 126°
2026-05-04 18:02 -22.95255 -47.21127 3645 ft 200 kts 127°
2026-05-04 18:03 -22.96104 -47.19936 3410 ft 198 kts 127°
2026-05-04 18:03 -22.96949 -47.18757 3236 ft 197 kts 126°
2026-05-04 18:03 -22.97769 -47.17574 2902 ft 195 kts 118°
2026-05-04 18:03 -22.98590 -47.16387 2675 ft 197 kts 127°
2026-05-04 18:04 -22.99443 -47.15248 2344 ft 191 kts 123°
2026-05-04 18:04 -23.00203 -47.14194 2207 ft 163 kts 125°
2026-05-04 18:04 -23.01223 -47.12852 2155 ft 53 kts 150°
2026-05-04 18:05 -23.01391 -47.12791 2158 ft 13 kts 192°
2026-05-04 18:05 -23.01407 -47.12811 2156 ft 1 kts 252°
2026-05-04 18:05 -23.01407 -47.12812 2156 ft 0 kts 254°
2026-05-04 18:05 -23.01398 -47.12844 2157 ft 11 kts 298°
2026-05-04 18:06 -23.01215 -47.13107 2156 ft 23 kts 309°
2026-05-04 18:06 -23.01126 -47.13236 2159 ft 20 kts 304°
2026-05-04 18:06 -23.01072 -47.13307 2156 ft 18 kts 307°
2026-05-04 18:07 -23.01005 -47.13400 2155 ft 14 kts 307°
2026-05-04 18:07 -23.00950 -47.13480 2158 ft 14 kts 307°
2026-05-04 18:07 -23.00850 -47.13616 2158 ft 27 kts 309°
2026-05-04 18:07 -23.00712 -47.13818 2159 ft 19 kts 282°
2026-05-04 18:08 -23.00707 -47.13905 2159 ft 17 kts 279°
2026-05-04 18:08 -23.00651 -47.14050 2157 ft 25 kts 303°
2026-05-04 18:08 -23.00543 -47.14213 2156 ft 27 kts 306°
2026-05-04 18:08 -23.00511 -47.14327 2156 ft 7 kts 236°
2026-05-04 18:09 -23.00546 -47.14361 2154 ft 0 kts 220°